This is the latest recevied weather packets stored in our database for station/object TVARMINN. If no packets are shown the sender has not sent any weather packets the latest 10 day(s).
| Time | Temp. | Humidity | Pressure | Rain* | Wind** | Luminosity | Snow |
|---|---|---|---|---|---|---|---|
| 1777685225 | 3.89° C | 96% | 1013 hPa | 0 mm | - | - | - |
| 1777684025 | 4.44° C | 96% | 1013.2 hPa | 0 mm | - | - | - |
| 1777682824 | 4.44° C | 95% | 1013.3 hPa | 0 mm | - | - | - |
| 1777681624 | 3.89° C | 96% | 1013.5 hPa | 0 mm | - | - | - |
| 1777680424 | 3.89° C | 96% | 1013.7 hPa | 0 mm | - | - | - |
| 1777679224 | 3.89° C | 96% | 1013.9 hPa | 0 mm | - | - | - |
| 1777678023 | 4.44° C | 96% | 1014.1 hPa | 0 mm | - | - | - |
| 1777676824 | 4.44° C | 96% | 1014.3 hPa | 0 mm | - | - | - |
| 1777675624 | 4.44° C | 94% | 1014.4 hPa | 0 mm | - | - | - |
| 1777674425 | 5° C | 93% | 1014.6 hPa | 0 mm | - | - | - |
| 1777673224 | 5° C | 91% | 1014.8 hPa | 0 mm | - | - | - |
| 1777672024 | 5.56° C | 89% | 1015.1 hPa | 0 mm | - | - | - |
| 1777670823 | 6.11° C | 87% | 1015.2 hPa | 0 mm | - | - | - |
| 1777669624 | 6.11° C | 87% | 1015.5 hPa | 0 mm | - | - | - |
| 1777668423 | 5.56° C | 87% | 1015.6 hPa | 0 mm | - | - | - |
| 1777667224 | 5.56° C | 88% | 1015.9 hPa | 0 mm | - | - | - |
| 1777666023 | 5.56° C | 88% | 1016.1 hPa | 0 mm | - | - | - |
| 1777664823 | 5.56° C | 88% | 1016.3 hPa | 0 mm | - | - | - |
| 1777663623 | 5.56° C | 88% | 1016.4 hPa | 0 mm | - | - | - |
| 1777662423 | 5.56° C | 88% | 1016.5 hPa | 0 mm | - | - | - |
| 1777661223 | 6.11° C | 88% | 1016.5 hPa | 0 mm | - | - | - |
| 1777660023 | 6.11° C | 87% | 1016.6 hPa | 0 mm | - | - | - |
| 1777658823 | 6.67° C | 85% | 1016.9 hPa | 0 mm | - | - | - |
| 1777657623 | 6.67° C | 83% | 1017 hPa | 0 mm | - | - | - |
| 1777656423 | 7.78° C | 79% | 1017.1 hPa | 0 mm | - | - | - |
* Rain latest hour (hover to see other rain measurements)
** Current wind speed in m/s (hover to see current wind gust speed)